GW1292 Weather Reports


Display with metric or nautical units.
time (UTC)temp
F
wind
direction
speed
MPH
gust
MPH
rain 1hr
in
rain 24hr
in
rain mn
in
humidity
%
barometer
mb
20260831214204 78 123 1.0 3.0 0.00 0.17 0.15 82 988.4
20260831213704 78 129 2.0 3.0 0.00 0.17 0.15 83 988.3
20260831213204 79 144 1.0 5.0 0.00 0.17 0.15 82 988.3
20260831211703 78 251 1.0 3.0 0.00 0.17 0.15 82 988.1
20260831211203 77 207 1.0 2.0 0.00 0.17 0.15 83 988.1
20260831210704 77 110 1.0 5.0 0.00 0.17 0.15 84 988.1
20260831210205 77 128 2.0 5.0 0.00 0.17 0.15 83 988.1
20260831204705 78 158 2.0 5.0 0.00 0.17 0.15 82 988.1
20260831204204 78 143 1.0 5.0 0.00 0.17 0.15 82 988.1
20260831203703 79 119 2.0 5.0 0.00 0.17 0.15 79 988.0
20260831203204 80 119 1.0 3.0 0.00 0.17 0.15 78 988.1
20260831201703 79 302 2.0 6.0 0.00 0.17 0.15 80 988.3
20260831201205 80 234 2.0 6.0 0.00 0.17 0.15 78 988.3
20260831200704 80 120 3.0 6.0 0.00 0.17 0.15 79 988.2
20260831194704 79 229 1.0 6.0 0.00 0.17 0.15 79 988.2
20260831194204 80 250 3.0 6.0 0.00 0.17 0.15 78 988.2
20260831193704 80 221 2.0 6.0 0.00 0.17 0.15 77 988.1
20260831193204 80 240 2.0 6.0 0.00 0.17 0.15 77 988.2
20260831191204 80 176 2.0 6.0 0.00 0.17 0.15 76 988.3
20260831190704 79 177 2.0 6.0 0.00 0.17 0.15 78 988.4
20260831190203 79 262 2.0 6.0 0.00 0.17 0.15 78 988.4
20260831184703 80 205 2.0 6.0 0.00 0.17 0.15 78 988.5
20260831184204 80 111 2.0 6.0 0.00 0.17 0.15 76 988.4
20260831183704 80 101 2.0 6.0 0.00 0.17 0.15 76 988.3
20260831183203 80 169 1.0 5.0 0.00 0.17 0.15 76 988.3
20260831181705 80 217 2.0 5.0 0.00 0.17 0.15 77 988.4
20260831181203 80 261 2.0 5.0 0.00 0.17 0.15 77 988.4
20260831180704 80 267 1.0 3.0 0.00 0.17 0.15 76 988.4
20260831180203 81 243 1.0 5.0 0.00 0.17 0.15 75 988.3
20260831174203 80 185 1.0 3.0 0.00 0.17 0.15 77 988.5
20260831173704 79 198 1.0 3.0 0.00 0.17 0.15 77 988.5
20260831173204 79 144 1.0 5.0 0.00 0.17 0.15 78 988.6
20260831171704 80 172 2.0 3.0 0.00 0.17 0.15 77 988.5
20260831171205 79 257 1.0 3.0 0.00 0.17 0.15 77 988.6
20260831170703 79 116 2.0 5.0 0.00 0.17 0.15 80 988.7
20260831170205 78 295 2.0 5.0 0.00 0.17 0.15 80 988.8
20260831164703 77 230 3.0 6.0 0.00 0.17 0.15 81 988.9
20260831164203 77 201 1.0 5.0 0.00 0.17 0.15 80 988.9
20260831163704 77 142 1.0 5.0 0.00 0.17 0.15 81 989.0
20260831163204 77 243 3.0 5.0 0.00 0.17 0.15 82 989.0
20260831161704 77 284 2.0 5.0 0.00 0.17 0.15 83 989.0
20260831161204 76 221 1.0 5.0 0.00 0.17 0.15 83 989.1
20260831160704 76 122 2.0 5.0 0.00 0.17 0.15 84 989.0
20260831160204 76 194 2.0 3.0 0.00 0.17 0.15 84 989.1
20260831154704 75 96 2.0 3.0 0.00 0.17 0.15 86 989.2
20260831154203 75 173 2.0 6.0 0.00 0.17 0.15 85 989.2
20260831153204 74 228 1.0 6.0 0.00 0.17 0.15 88 989.2
20260831151704 72 122 2.0 5.0 0.00 0.17 0.15 90 989.3
20260831151204 72 203 2.0 6.0 0.00 0.17 0.15 90 989.2
20260831150704 72 129 1.0 6.0 0.00 0.17 0.15 90 989.2
20260831150203 73 108 2.0 6.0 0.00 0.17 0.15 91 989.2
20260831144704 73 189 2.0 3.0 0.00 0.17 0.15 91 989.3
20260831144203 73 154 2.0 5.0 0.00 0.17 0.15 91 989.3
20260831143704 73 215 2.0 5.0 0.00 0.17 0.15 91 989.3
20260831143204 73 174 3.0 5.0 0.00 0.17 0.15 91 989.4
20260831141204 74 199 2.0 6.0 0.00 0.17 0.15 91 989.5
20260831140703 74 208 1.0 6.0 0.00 0.17 0.15 91 989.5
20260831140204 74 152 2.0 6.0 0.00 0.17 0.15 91 989.4
20260831134704 73 184 1.0 5.0 0.00 0.17 0.15 91 989.3
20260831134203 73 128 2.0 3.0 0.00 0.17 0.15 92 989.4
20260831133703 73 196 1.0 3.0 0.00 0.17 0.15 92 989.4
20260831131204 72 172 2.0 5.0 0.00 0.17 0.15 93 989.7
20260831130704 72 96 2.0 6.0 0.00 0.17 0.15 94 989.8
20260831130204 72 100 1.0 8.0 0.00 0.17 0.15 94 989.8
20260831124703 72 145 2.0 3.0 0.00 0.17 0.15 94 989.9
20260831124203 72 88 1.0 3.0 0.00 0.17 0.15 94 989.9
20260831123703 71 196 1.0 3.0 0.00 0.17 0.15 94 989.9
20260831123204 71 91 2.0 3.0 0.00 0.17 0.15 94 989.8
20260831120205 71 166 1.0 5.0 0.02 0.17 0.16 95 989.5
20260831114704 71 148 2.0 3.0 0.00 0.17 0.15 95 989.4
20260831114204 70 90 2.0 3.0 0.01 0.17 0.15 96 989.5
20260831113703 70 89 2.0 5.0 0.07 0.17 0.15 96 989.5
20260831111704 70 170 1.0 3.0 0.13 0.15 0.14 96 989.9
20260831110704 71 134 1.0 6.0 0.14 0.15 0.14 96 990.0
20260831104705 71 67 1.0 5.0 0.15 0.15 0.15 96 989.9
20260831104205 71 80 3.0 5.0 0.14 0.14 0.14 96 990.1
20260831103704 71 70 2.0 3.0 0.08 0.08 0.08 96 990.4
20260831103206 71 67 2.0 3.0 0.08 0.08 0.08 96 990.6
20260831101706 71 253 0.0 2.0 0.01 0.01 0.01 95 991.2
20260831101209 71 252 1.0 2.0 0.01 0.01 0.01 93 991.1